Temp
-16 -15 -15 -15 -15 -14 -14 -14 -13 -13 -13 -13 -14 -13 -14 -14 -13 -12 -13 -13 -13 -12 -12 -11 -11 -11 -11 -11 -11 -11 -11 -11 -10 -10 -10 -10 -9 -9 -9 -8 -9 -9 -9 -9 -9
-16 -16 -15 -15 -15 -15 -14 -14 -13 -13 -13 -13 -13 -13 -13 -14 -13 -12 -13 -13 -13 -12 -11 -12 -11 -11 -11 -11 -11 -11 -10 -12 -11 -10 -10 -10 -10 -9 -9 -9 -9 -9 -9 -9 -9
-17 -17 -16 -16 -15 -15 -15 -14 -14 -13 -13 -13 -13 -13 -13 -13 -13 -13 -13 -13 -13 -13 -12 -12 -11 -11 -11 -11 -11 -11 -11 -11 -12 -10 -10 -10 -10 -10 -9 -9 -9 -9 -9 -9 -10
-17 -17 -17 -17 -16 -15 -15 -15 -14 -14 -13 -13 -13 -13 -13 -13 -13 -13 -13 -13 -13 -13 -13 -13 -12 -12 -12 -12 -12 -11 -11 -11 -12 -11 -10 -10 -10 -10 -10 -10 -9 -9 -9 -10 -10
-17 -17 -17 -17 -17 -16 -16 -15 -15 -14 -14 -13 -13 -13 -12 -13 -12 -12 -13 -13 -13 -13 -13 -13 -12 -11 -11 -11 -11 -12 -11 -12 -12 -11 -11 -10 -11 -10 -10 -10 -10 -9 -9 -10 -10
-18 -18 -17 -17 -17 -17 -17 -16 -15 -15 -14 -14 -13 -13 -13 -13 -13 -12 -13 -13 -13 -13 -13 -13 -12 -12 -11 -11 -10 -11 -11 -11 -12 -12 -11 -11 -11 -11 -10 -11 -10 -10 -10 -10 -11
-19 -19 -18 -18 -17 -17 -17 -17 -16 -16 -15 -14 -13 -13 -13 -13 -13 -12 -12 -13 -13 -13 -13 -13 -13 -12 -11 -11 -11 -11 -11 -11 -11 -12 -12 -12 -10 -11 -11 -11 -11 -11 -10 -10 -10
-20 -20 -19 -19 -18 -18 -17 -17 -17 -16 -16 -15 -14 -13 -13 -13 -13 -13 -12 -13 -13 -13 -13 -13 -13 -12 -12 -11 -12 -11 -11 -11 -11 -12 -12 -11 -10 -11 -11 -11 -11 -11 -11 -11 -11
-23 -21 -21 -20 -19 -19 -18 -18 -17 -17 -16 -16 -15 -14 -14 -13 -13 -13 -13 -13 -13 -13 -13 -13 -13 -13 -12 -12 -11 -11 -10 -11 -11 -11 -11 -11 -11 -11 -11 -11 -11 -11 -11 -11 -11
-26 -25 -23 -22 -20 -20 -19 -18 -18 -18 -17 -16 -16 -15 -14 -14 -13 -13 -13 -13 -13 -14 -13 -13 -13 -13 -12 -12 -11 -11 -10 -11 -10 -11 -11 -11 -11 -11 -11 -11 -11 -11 -11 -11 -11
-26 -26 -26 -25 -23 -21 -20 -19 -18 -18 -17 -17 -16 -15 -14 -14 -14 -13 -13 -13 -13 -13 -13 -13 -13 -12 -12 -12 -12 -12 -12 -12 -12 -11 -11 -11 -12 -12 -12 -11 -11 -11 -12 -12 -12
-26 -26 -26 -26 -25 -23 -22 -20 -20 -19 -18 -18 -17 -16 -15 -15 -14 -13 -13 -13 -13 -13 -13 -13 -12 -12 -13 -12 -13 -12 -12 -12 -11 -11 -12 -12 -12 -12 -12 -12 -11 -12 -12 -12 -12
-26 -26 -26 -26 -26 -26 -25 -23 -21 -20 -19 -18 -17 -17 -16 -15 -15 -14 -13 -13 -13 -13 -13 -13 -12 -13 -13 -13 -12 -12 -12 -12 -12 -12 -12 -12 -12 -12 -11 -11 -12 -12 -12 -13 -12
-26 -27 -27 -27 -27 -27 -26 -26 -24 -22 -20 -18 -18 -17 -17 -16 -16 -15 -14 -14 -13 -13 -13 -13 -13 -14 -14 -13 -13 -12 -12 -12 -12 -12 -12 -12 -11 -11 -11 -11 -12 -12 -12 -13 -13
-27 -27 -27 -28 -27 -27 -27 -26 -25 -25 -22 -21 -18 -18 -18 -17 -16 -15 -14 -14 -14 -13 -13 -13 -13 -14 -14 -13 -14 -13 -13 -13 -13 -12 -12 -12 -12 -12 -12 -11 -11 -11 -12 -12 -13
-27 -27 -27 -27 -27 -27 -27 -26 -26 -26 -23 -22 -20 -19 -18 -17 -16 -16 -16 -14 -14 -14 -14 -14 -14 -14 -14 -14 -14 -13 -13 -13 -13 -13 -13 -12 -12 -11 -12 -12 -11 -12 -12 -12 -12
-27 -27 -27 -27 -27 -26 -26 -26 -25 -26 -25 -23 -21 -20 -19 -18 -17 -18 -16 -15 -15 -15 -15 -14 -14 -14 -14 -14 -15 -14 -14 -13 -13 -13 -12 -12 -13 -12 -12 -12 -12 -12 -12 -12 -11
-27 -28 -28 -27 -26 -26 -26 -26 -25 -25 -25 -25 -23 -22 -21 -20 -18 -19 -17 -16 -18 -17 -16 -15 -15 -14 -14 -14 -14 -14 -14 -13 -13 -13 -12 -13 -12 -12 -12 -12 -12 -12 -12 -12 -11
-27 -27 -27 -27 -26 -26 -25 -25 -25 -25 -24 -24 -23 -23 -22 -22 -20 -19 -18 -18 -19 -19 -18 -17 -16 -16 -15 -15 -14 -14 -14 -14 -14 -13 -13 -13 -13 -13 -12 -12 -12 -12 -12 -12 -12
-27 -27 -27 -27 -26 -25 -25 -25 -25 -25 -25 -24 -24 -23 -23 -22 -22 -20 -19 -19 -19 -19 -19 -18 -18 -18 -17 -17 -16 -15 -15 -14 -14 -14 -14 -13 -13 -13 -13 -13 -13 -13 -13 -12 -12
-26 -26 -26 -26 -26 -25 -25 -25 -25 -25 -24 -24 -24 -24 -23 -23 -22 -22 -21 -20 -20 -19 -19 -19 -19 -18 -17 -17 -16 -16 -15 -15 -15 -15 -14 -14 -13 -13 -13 -13 -13 -13 -13 -13 -13
-26 -26 -26 -26 -26 -25 -25 -25 -25 -25 -24 -24 -23 -23 -23 -23 -22 -22 -22 -21 -20 -20 -20 -20 -19 -19 -18 -17 -17 -16 -16 -16 -16 -15 -15 -15 -14 -14 -14 -14 -14 -14 -14 -14 -14
-26 -26 -26 -25 -25 -25 -25 -25 -25 -24 -24 -24 -24 -24 -23 -22 -22 -22 -22 -22 -21 -21 -21 -20 -20 -19 -19 -18 -17 -17 -17 -17 -17 -16 -16 -16 -15 -15 -15 -15 -15 -15 -14 -14 -15
-26 -26 -25 -25 -25 -25 -25 -25 -24 -24 -24 -24 -24 -24 -23 -22 -22 -22 -22 -22 -22 -21 -21 -20 -20 -19 -19 -18 -18 -17 -18 -18 -17 -17 -17 -16 -16 -16 -15 -16 -16 -16 -15 -16 -16
-26 -26 -26 -25 -25 -25 -25 -25 -24 -24 -24 -24 -24 -23 -23 -23 -22 -21 -21 -21 -22 -21 -21 -21 -20 -20 -19 -19 -19 -19 -18 -18 -17 -17 -17 -17 -17 -17 -17 -17 -17 -16 -17 -17 -17
-26 -26 -25 -26 -25 -25 -25 -25 -24 -24 -24 -24 -24 -24 -23 -23 -23 -22 -22 -22 -21 -21 -21 -21 -21 -21 -20 -20 -20 -20 -19 -18 -18 -18 -17 -17 -17 -17 -17 -17 -17 -18 -18 -18 -18
-26 -26 -26 -25 -25 -26 -25 -25 -24 -24 -24 -24 -24 -24 -23 -22 -22 -22 -22 -22 -21 -21 -21 -20 -20 -21 -20 -20 -20 -20 -19 -19 -18 -18 -18 -17 -18 -18 -18 -18 -18 -18 -18 -19 -19
Height
5680 5683 5686 5691 5696 5702 5708 5713 5720 5726 5731 5736 5741 5747 5753 5759 5766 5773 5780 5784 5787 5792 5797 5803 5804 5807 5813 5819 5824 5830 5834 5839 5847 5848 5851 5858 5859 5864 5865 5867 5867 5870 5874 5875 5874
5674 5676 5679 5683 5688 5694 5699 5706 5712 5718 5724 5730 5735 5741 5747 5754 5760 5767 5775 5778 5783 5787 5792 5798 5803 5805 5810 5815 5820 5825 5831 5835 5841 5845 5849 5854 5857 5861 5864 5866 5866 5868 5872 5874 5874
5667 5669 5672 5675 5680 5685 5691 5698 5704 5711 5715 5721 5728 5734 5740 5746 5753 5760 5767 5773 5778 5783 5787 5793 5798 5803 5808 5811 5817 5822 5829 5831 5835 5841 5844 5850 5854 5857 5861 5865 5865 5868 5870 5873 5873
5658 5661 5664 5667 5672 5676 5682 5688 5696 5702 5708 5715 5720 5726 5732 5739 5745 5753 5761 5767 5772 5778 5782 5788 5792 5798 5805 5809 5812 5819 5824 5828 5833 5837 5841 5846 5850 5855 5859 5862 5863 5866 5869 5871 5872
5646 5649 5653 5657 5662 5667 5672 5678 5685 5693 5699 5705 5711 5719 5726 5732 5738 5746 5754 5759 5766 5772 5778 5784 5788 5793 5800 5805 5808 5813 5818 5825 5830 5832 5836 5840 5848 5851 5854 5857 5860 5862 5866 5868 5869
5631 5635 5639 5644 5650 5656 5662 5668 5675 5682 5689 5696 5702 5709 5717 5725 5729 5737 5747 5754 5759 5766 5772 5778 5783 5788 5794 5799 5804 5807 5814 5818 5824 5828 5830 5834 5841 5845 5851 5854 5857 5858 5862 5865 5867
5613 5618 5624 5630 5636 5644 5651 5657 5664 5671 5678 5686 5693 5701 5708 5716 5721 5728 5738 5746 5751 5758 5765 5770 5776 5781 5789 5793 5797 5802 5809 5813 5818 5821 5824 5830 5834 5841 5846 5850 5853 5854 5857 5861 5864
5594 5599 5607 5615 5622 5629 5637 5645 5652 5660 5668 5676 5683 5691 5700 5705 5712 5719 5728 5737 5744 5750 5757 5763 5769 5774 5781 5788 5792 5795 5803 5806 5813 5816 5819 5824 5830 5838 5842 5846 5849 5850 5852 5856 5859
5575 5581 5588 5597 5607 5615 5624 5632 5642 5648 5657 5665 5674 5683 5691 5698 5706 5711 5718 5726 5735 5743 5749 5756 5761 5766 5774 5780 5786 5788 5795 5802 5808 5811 5813 5817 5825 5829 5835 5839 5843 5846 5848 5852 5855
5565 5568 5573 5580 5590 5601 5611 5620 5630 5638 5646 5655 5663 5673 5684 5690 5696 5702 5710 5717 5725 5733 5741 5747 5753 5758 5765 5772 5777 5783 5789 5796 5800 5806 5808 5813 5819 5823 5830 5835 5838 5840 5842 5847 5851
5559 5562 5565 5568 5575 5585 5597 5608 5620 5629 5637 5646 5654 5663 5671 5679 5685 5693 5701 5709 5716 5726 5732 5738 5746 5753 5759 5766 5772 5776 5783 5791 5795 5801 5804 5806 5812 5817 5822 5829 5832 5835 5839 5842 5846
5555 5557 5560 5563 5566 5573 5583 5595 5604 5616 5625 5634 5643 5652 5661 5667 5676 5682 5691 5701 5708 5717 5724 5732 5739 5747 5750 5756 5763 5769 5776 5782 5789 5794 5798 5800 5804 5808 5814 5820 5824 5827 5831 5835 5837
5552 5554 5556 5559 5562 5566 5572 5581 5591 5601 5613 5625 5633 5642 5651 5659 5667 5674 5682 5691 5699 5707 5716 5724 5733 5738 5744 5749 5756 5761 5768 5775 5782 5788 5792 5795 5798 5801 5806 5810 5815 5818 5821 5825 5829
5550 5551 5553 5555 5560 5563 5568 5574 5582 5590 5601 5614 5626 5634 5642 5649 5659 5668 5674 5682 5690 5700 5707 5714 5723 5730 5737 5743 5749 5754 5761 5767 5774 5779 5782 5786 5788 5793 5797 5801 5805 5808 5812 5817 5822
5548 5549 5551 5555 5557 5561 5566 5570 5577 5581 5592 5603 5613 5625 5632 5642 5653 5659 5666 5673 5682 5690 5699 5708 5715 5722 5729 5738 5743 5749 5755 5760 5764 5770 5773 5777 5781 5785 5788 5792 5797 5800 5803 5809 5812
5547 5550 5552 5555 5557 5561 5564 5569 5575 5580 5585 5595 5604 5615 5625 5634 5644 5650 5657 5667 5675 5680 5688 5698 5707 5713 5721 5729 5734 5743 5749 5753 5757 5761 5762 5767 5773 5775 5779 5784 5788 5793 5796 5799 5802
5548 5551 5553 5555 5557 5562 5564 5570 5576 5577 5584 5588 5595 5605 5616 5625 5636 5643 5651 5660 5666 5672 5680 5688 5698 5708 5714 5721 5726 5734 5741 5744 5747 5748 5753 5758 5762 5766 5771 5776 5780 5783 5786 5789 5793
5552 5554 5555 5556 5558 5561 5566 5569 5572 5578 5580 5585 5591 5599 5608 5616 5625 5636 5644 5651 5658 5665 5674 5679 5689 5696 5705 5711 5721 5728 5733 5735 5737 5742 5748 5752 5753 5759 5762 5767 5772 5774 5777 5781 5783
5555 5557 5557 5558 5561 5563 5564 5569 5572 5576 5580 5583 5588 5594 5602 5609 5620 5628 5637 5645 5653 5659 5666 5674 5682 5689 5697 5704 5712 5720 5724 5728 5732 5736 5741 5745 5749 5753 5757 5760 5765 5768 5769 5773 5776
5559 5560 5560 5561 5562 5565 5568 5570 5573 5576 5578 5582 5588 5590 5599 5606 5613 5621 5629 5638 5647 5654 5661 5668 5676 5684 5691 5697 5702 5710 5717 5722 5724 5729 5731 5736 5741 5746 5750 5753 5756 5759 5763 5766 5766
5563 5563 5563 5562 5563 5566 5568 5571 5575 5577 5579 5583 5587 5589 5595 5603 5611 5617 5625 5636 5641 5648 5654 5662 5669 5678 5687 5690 5698 5703 5708 5714 5718 5722 5724 5728 5735 5738 5740 5743 5747 5751 5755 5756 5756
5566 5565 5564 5565 5566 5567 5570 5572 5575 5580 5580 5582 5586 5591 5597 5604 5610 5615 5622 5630 5638 5645 5652 5657 5664 5672 5680 5685 5691 5697 5702 5706 5710 5717 5718 5721 5729 5731 5733 5735 5740 5744 5746 5747 5748
5567 5567 5566 5566 5567 5569 5571 5574 5577 5578 5580 5582 5583 5589 5594 5600 5606 5610 5618 5627 5635 5641 5646 5653 5658 5667 5674 5680 5686 5690 5697 5701 5705 5709 5711 5714 5719 5722 5726 5729 5731 5734 5736 5738 5741
5568 5568 5567 5567 5568 5570 5571 5573 5576 5578 5580 5581 5583 5587 5592 5597 5601 5609 5615 5622 5629 5636 5643 5649 5655 5661 5668 5678 5682 5685 5691 5694 5697 5701 5705 5706 5711 5714 5719 5722 5724 5726 5728 5730 5731
5569 5570 5570 5569 5570 5571 5572 5573 5575 5578 5582 5583 5585 5588 5592 5595 5599 5604 5612 5618 5625 5631 5637 5644 5650 5657 5663 5666 5672 5679 5682 5685 5690 5696 5697 5701 5703 5707 5711 5713 5715 5718 5720 5722 5724
5571 5572 5573 5572 5572 5572 5573 5574 5576 5580 5583 5585 5587 5590 5593 5596 5600 5605 5608 5615 5621 5628 5632 5639 5645 5651 5655 5660 5663 5666 5671 5677 5682 5685 5690 5694 5697 5701 5704 5706 5709 5710 5711 5713 5714
5571 5573 5575 5575 5575 5575 5574 5575 5578 5581 5584 5587 5588 5590 5593 5597 5602 5607 5612 5615 5620 5624 5631 5636 5640 5645 5649 5653 5656 5660 5667 5671 5675 5679 5683 5687 5692 5694 5696 5698 5699 5701 5703 5704 5705
Wind_Speed
32 33 34 36 38 40 40 40 41 40 40 40 39 40 44 41 38 39 37 34 29 30 25 35 21 26 44 54 46 41 37 32 31 31 29 24 21 20 19 20 17 16 14 11 10
31 32 34 35 37 40 40 42 42 42 42 41 41 42 43 45 42 39 37 39 36 33 32 25 24 30 33 37 47 46 40 35 35 32 30 26 23 22 22 21 20 18 16 13 11
33 33 34 36 38 40 42 43 44 45 43 43 42 43 43 46 47 45 43 42 41 38 33 29 33 30 32 29 41 45 44 38 37 35 32 28 26 24 22 22 21 18 16 14 14
39 39 38 37 38 41 43 43 45 46 47 46 45 44 44 46 48 48 49 45 42 44 38 36 35 31 25 26 23 35 45 42 38 36 36 32 29 27 24 24 22 19 16 16 16
45 45 45 42 41 41 43 44 46 47 48 48 48 47 47 46 48 48 50 50 46 46 44 42 39 36 34 31 24 28 37 47 42 41 39 36 30 30 27 25 25 22 19 18 18
48 49 50 49 47 44 44 45 46 48 50 50 50 50 49 47 49 48 48 51 51 48 48 47 45 41 41 39 35 28 33 34 46 44 41 40 36 32 28 27 26 24 23 21 21
55 53 53 54 52 50 48 47 46 47 50 51 53 54 52 50 50 49 48 50 52 51 52 50 48 46 42 40 38 38 34 38 36 49 48 44 47 36 32 30 29 29 25 22 22
59 58 57 56 55 55 53 51 50 49 49 51 52 54 53 52 51 51 48 49 51 52 51 55 53 51 49 46 41 40 42 41 34 35 51 49 44 41 35 33 32 32 28 26 25
42 53 58 59 58 57 56 54 53 51 50 50 52 53 54 53 53 51 50 49 50 51 53 45 47 50 51 49 48 44 42 42 37 36 41 51 46 44 42 38 36 34 31 29 28
23 30 42 50 59 58 58 57 55 55 53 53 53 53 54 52 53 52 51 52 52 53 58 50 45 48 53 52 53 51 45 45 40 39 41 46 40 40 44 39 39 37 35 33 30
21 21 23 32 44 52 59 58 57 56 56 54 54 54 54 54 53 54 53 51 51 54 61 58 51 48 46 50 48 50 46 44 41 39 37 41 47 39 44 44 43 38 37 36 31
19 19 21 22 28 40 49 54 58 57 56 56 57 55 57 55 57 56 54 53 52 51 56 57 55 52 51 54 52 49 49 48 49 44 45 42 43 39 43 52 44 42 40 38 38
16 17 17 18 20 26 35 46 52 56 57 58 58 57 56 57 55 58 57 54 52 52 52 53 51 51 53 52 52 53 52 50 49 46 44 45 48 45 43 47 48 48 53 50 42
14 14 14 14 16 19 21 30 42 48 55 59 59 58 57 57 57 56 57 56 54 52 52 53 52 51 50 46 44 46 50 47 52 46 47 46 45 43 45 48 46 51 49 45 45
10 11 11 13 16 17 20 25 28 37 49 52 57 56 58 59 57 57 57 58 55 53 53 53 52 51 56 51 48 47 45 45 47 50 49 51 52 45 41 47 45 45 46 48 51
8 11 11 12 14 15 18 24 28 28 39 46 53 55 55 58 58 57 58 59 55 56 54 56 55 54 51 53 45 46 43 38 42 46 49 50 49 49 45 50 48 45 50 49 48
11 12 12 12 14 11 21 23 23 26 30 37 47 52 54 56 57 52 57 59 55 55 55 56 60 60 59 58 50 42 42 45 42 44 46 45 43 48 43 45 48 45 48 60 55
12 10 5 8 11 21 23 22 33 19 22 24 37 48 50 52 57 52 56 54 44 50 49 56 56 61 64 65 58 51 44 53 46 46 44 42 44 45 46 46 44 44 46 50 52
12 8 6 7 13 13 11 26 17 20 28 16 22 43 52 52 52 54 56 54 45 38 40 47 50 51 53 53 51 52 49 52 48 45 41 41 40 37 37 36 36 45 58 56 54
11 7 6 6 12 13 13 20 23 19 31 20 20 33 57 48 51 55 55 53 49 39 40 42 49 50 49 46 49 53 51 49 47 47 45 44 43 45 44 43 41 41 41 37 38
7 6 4 4 9 12 12 12 17 18 23 22 26 21 40 55 48 50 51 51 47 48 44 40 55 56 50 45 44 47 51 49 44 45 45 42 42 43 42 43 43 41 41 40 42
6 4 2 3 6 10 13 14 14 12 16 25 33 18 25 43 46 42 34 34 45 49 47 45 40 54 56 56 46 42 38 39 39 42 41 40 41 43 42 42 40 38 38 40 42
6 4 2 2 6 8 11 13 13 15 11 19 29 20 17 26 28 35 42 41 41 42 37 40 43 38 51 43 48 48 46 39 38 37 37 36 35 37 37 36 35 35 36 38 39
7 7 4 6 9 9 7 7 10 14 10 5 9 20 14 21 27 32 36 39 43 45 42 40 41 46 42 47 44 46 44 36 34 37 38 41 41 39 38 37 37 38 39 39 39
8 9 7 9 11 9 6 4 10 15 10 7 7 7 10 14 17 28 28 31 38 38 40 48 46 44 47 41 39 37 38 37 36 36 42 42 42 39 37 38 39 40 40 40 42
6 5 7 6 9 11 9 11 11 17 9 7 6 3 6 6 9 13 20 31 30 34 33 40 39 48 46 43 41 44 47 44 42 42 41 39 40 40 42 42 42 42 42 42 42
5 2 1 4 8 10 10 15 15 11 13 5 7 2 4 8 10 9 4 24 29 27 29 34 32 27 36 42 41 43 42 47 45 45 45 46 45 45 45 43 43 42 43 41 38
Wind_Direction
234 226 222 222 224 225 224 223 222 224 224 223 220 217 219 217 216 215 212 214 205 213 246 216 238 221 215 202 201 202 197 206 205 206 207 205 198 199 202 199 185 179 178 192 205
243 232 225 220 221 223 223 222 222 224 222 223 222 220 220 214 213 209 213 213 209 207 204 206 222 214 208 212 206 207 200 203 212 210 210 210 204 195 210 211 199 188 186 194 210
238 234 229 221 218 219 221 221 221 222 223 225 224 224 220 221 216 214 216 220 214 212 212 207 216 221 211 210 210 215 204 205 216 211 214 213 209 203 213 222 218 196 197 204 206
238 234 229 225 218 216 219 220 219 221 221 221 225 225 224 224 218 215 213 217 218 213 217 211 218 228 220 210 212 217 215 207 214 218 220 215 212 214 207 224 228 218 203 209 220
243 237 231 227 224 220 218 218 218 218 221 221 223 223 226 224 222 219 214 214 215 217 215 216 218 219 210 216 223 219 214 207 216 222 223 224 219 216 212 217 226 224 216 215 222
246 242 236 232 228 223 220 219 218 219 221 220 222 224 224 226 226 223 218 215 217 215 217 218 218 220 221 223 228 218 206 216 215 224 225 227 222 223 219 218 228 224 224 223 224
245 244 239 236 232 227 222 219 219 218 218 220 219 222 223 225 226 226 220 216 215 219 217 221 223 223 220 222 222 217 220 215 223 223 226 227 228 221 223 220 221 227 225 231 230
244 243 240 236 233 230 225 220 219 219 218 219 219 219 222 223 226 226 223 218 216 220 213 217 222 222 223 223 223 222 214 222 224 222 225 228 227 232 223 226 223 228 227 230 232
252 246 243 237 232 229 227 223 220 220 219 220 220 218 219 220 224 225 225 222 218 216 207 211 217 222 223 225 225 221 218 216 225 229 233 226 229 233 224 225 226 229 231 230 233
255 242 240 238 234 229 226 225 222 220 220 220 221 220 217 219 221 224 224 223 220 216 210 217 221 222 222 225 225 224 224 221 220 226 233 234 237 240 233 228 231 231 232 232 231
253 251 243 236 228 229 227 224 224 222 220 220 221 221 220 220 222 223 224 224 222 218 217 225 228 222 228 226 229 227 225 220 215 223 230 237 239 243 238 235 233 235 237 237 231
248 247 245 241 230 222 221 224 223 222 220 220 220 220 220 222 222 224 225 225 224 221 223 226 226 222 222 225 225 227 226 227 224 226 228 238 241 247 245 238 235 230 234 239 236
239 240 245 238 230 223 217 216 219 220 220 219 220 219 219 221 222 223 224 226 225 225 224 225 226 226 219 224 227 231 229 231 234 234 230 238 241 239 241 235 234 238 240 235 239
241 243 238 228 215 215 220 219 215 216 218 219 219 220 222 221 222 222 224 226 227 226 224 225 224 221 219 222 226 232 235 232 229 231 229 233 240 238 238 238 238 242 243 233 238
227 224 208 198 203 203 204 207 209 213 215 215 216 215 220 220 221 221 223 225 228 228 226 225 224 223 221 221 224 227 226 228 227 231 237 237 239 244 249 239 242 240 237 235 236
195 182 193 195 199 192 194 192 193 210 214 214 211 213 216 220 221 222 222 224 227 228 227 222 220 220 219 216 223 226 229 233 234 234 238 237 237 242 241 241 241 247 248 242 243
161 172 196 197 177 183 180 176 212 223 215 209 208 206 209 215 218 222 224 222 226 226 225 225 223 219 220 223 230 233 229 229 226 226 231 231 232 235 236 235 238 243 240 247 247
150 154 173 167 166 165 175 214 202 214 210 211 206 201 201 208 215 208 219 225 222 226 225 224 225 226 228 233 235 238 235 231 235 230 233 233 233 235 238 234 234 240 242 249 256
131 114 85 132 180 185 181 185 198 201 182 165 203 201 191 197 207 212 214 217 200 216 220 223 223 227 230 231 232 231 235 234 239 237 238 237 242 237 237 236 241 240 238 244 247
97 88 78 72 178 204 192 191 176 204 201 207 187 205 197 193 203 209 210 212 204 196 214 221 217 217 224 225 229 224 229 233 233 235 242 247 247 248 251 254 255 254 255 254 250
96 91 43 82 160 185 205 199 183 196 216 216 173 188 203 202 210 212 216 209 194 194 200 210 213 213 210 210 213 218 220 226 229 232 232 240 248 247 247 249 249 249 253 255 255
99 85 68 119 158 181 198 217 226 187 229 226 182 165 193 198 206 208 206 208 210 215 219 222 223 221 220 218 215 214 210 218 223 228 231 236 241 244 244 245 249 253 257 261 264
99 73 111 142 159 175 184 198 208 183 143 214 226 223 163 196 204 207 209 208 201 202 209 210 217 216 222 229 229 227 229 234 233 235 239 241 240 241 248 250 253 256 258 258 258
91 63 92 151 149 166 201 217 214 172 135 193 267 242 231 166 193 202 197 204 210 212 207 203 204 203 220 222 233 232 231 236 238 238 241 243 242 243 246 249 249 251 254 255 255
92 62 69 142 147 138 142 173 182 190 161 138 171 254 253 197 156 179 177 194 203 204 211 212 212 214 213 220 227 227 234 236 234 235 237 239 240 238 238 242 247 251 252 253 255
107 78 60 115 154 148 149 149 156 200 194 171 209 251 271 259 182 164 179 184 191 191 189 208 214 221 222 224 222 227 224 229 230 232 234 239 243 245 247 248 250 252 255 255 256
168 158 122 104 147 150 148 127 138 168 209 196 214 215 234 214 215 241 221 191 196 193 201 210 200 206 212 225 231 229 231 229 232 234 236 237 242 245 248 249 249 250 252 254 258